Location: Unspecified
(58.9933°N, 5.6375°E)
Time: 22:29:49
(UTC+01:00)

Resurs 1-4 Rocket - Visible Passes

Search period start: 31 October 2014 00:00
Search period end: 10 November 2014 00:00
Orbit: 801 x 814 km, 98.4° (Epoch: 30 October)

Date Brightness Start Highest point End Pass type
(mag) Time Alt. Az. Time Alt. Az. Time Alt. Az.
31 Oct 5.0 02:44:39 10° ENE 02:45:33 10° ENE 02:46:27 10° E visible
31 Oct 3.0 04:21:42 10° NNE 04:26:50 46° E 04:31:55 10° S visible
31 Oct 2.4 06:01:43 10° N 06:06:46 45° WNW 06:11:46 10° SW visible
31 Oct 5.1 17:35:36 10° WSW 17:37:58 13° W 17:40:20 10° NW visible
01 Nov 3.7 03:57:26 10° NNE 04:02:12 32° E 04:06:56 10° SSE visible
01 Nov 2.1 05:37:11 10° NNE 05:42:27 62° WNW 05:47:39 10° SW visible
02 Nov 4.2 03:33:18 10° NE 03:37:29 23° E 03:41:38 10° SE visible
02 Nov 2.0 05:12:42 10° NNE 05:18:03 85° WNW 05:23:21 10° SSW visible
02 Nov 3.2 06:53:08 10° N 06:57:21 25° NW 07:01:32 10° WSW visible
03 Nov 4.7 03:09:26 10° NE 03:12:41 16° E 03:15:55 10° ESE visible
03 Nov 2.3 04:48:16 10° NNE 04:53:35 69° ESE 04:58:24 13° S visible
03 Nov 2.8 06:28:30 10° N 06:33:10 32° NW 06:37:48 10° WSW visible
04 Nov 5.0 02:46:26 10° ENE 02:47:47 11° ENE 02:49:08 10° E visible
04 Nov 3.0 04:23:53 10° NNE 04:29:02 48° E 04:33:26 14° S visible
04 Nov 2.5 06:03:56 10° N 06:08:56 43° WNW 06:13:53 10° SW visible
04 Nov 5.2 17:38:04 10° WSW 17:40:12 12° WNW 17:42:21 10° NW visible
05 Nov 3.6 03:59:36 10° NNE 04:04:25 34° E 04:08:29 13° SSE visible
05 Nov 2.1 05:39:23 10° NNE 05:44:37 59° WNW 05:49:33 11° SW visible
05 Nov 3.5 07:20:03 10° N 07:23:36 19° NW 07:27:08 10° W visible
06 Nov 4.2 03:35:27 10° NE 03:39:42 24° E 03:43:31 12° SE visible
06 Nov 2.0 05:14:53 10° NNE 05:20:14 83° WNW 05:24:35 16° SSW visible
06 Nov 3.2 06:55:21 10° N 06:59:30 24° NW 07:03:37 10° W visible
07 Nov 4.6 03:11:32 10° NE 03:14:54 17° E 03:18:15 10° ESE visible
07 Nov 2.3 04:50:26 10° NNE 04:55:46 71° ESE 04:59:38 19° S visible
07 Nov 2.9 06:30:43 10° N 06:35:19 31° NW 06:39:54 10° WSW visible
08 Nov 4.9 02:48:20 10° ENE 02:50:01 11° ENE 02:51:41 10° E visible
08 Nov 2.9 04:26:03 10° NNE 04:31:14 50° E 04:34:40 20° SSE visible
08 Nov 2.5 06:06:07 10° N 06:11:05 42° WNW 06:15:44 11° SW visible
08 Nov 5.2 17:40:33 10° W 17:42:26 12° WNW 17:44:19 10° WNW visible
09 Nov 3.5 04:01:45 10° NNE 04:06:37 35° E 04:09:42 19° SSE visible
09 Nov 2.1 05:41:35 10° NNE 05:46:47 57° WNW 05:50:47 17° SW visible
09 Nov 3.5 07:22:16 10° N 07:25:44 18° NW 07:29:11 10° W visible
09 Nov 4.9 17:14:07 10° SW 17:17:33 17° W 17:21:01 10° NW visible
